Location: Banksville Park
(38.5557°N, 75.1182°W)
Time: 23:24:41
(UTC+00:00)

CENTAUR R/B - Pass Details

Date: 19 September 2020
Orbit: 753 x 1435 km, 63.5° (Epoch: 26 October)

Event Time Altitude Azimuth Distance (km) Brightness Sun altitude
Rises 02:37:43 0° 323° (NW) 4,252 6.7 -39.2°
Reaches altitude 10° 02:40:28 10° 320° (NW) 3,354 6.0 -39.6°
Enters shadow 02:47:16 54° 278° (W) 1,658 3.7 -40.6°
